This is the latest recevied weather packets stored in our database for station/object KF4WSW-13. If no packets are shown the sender has not sent any weather packets the latest 10 day(s).
| Time | Temp. | Humidity | Pressure | Rain* | Wind** | Luminosity | Snow |
|---|---|---|---|---|---|---|---|
| 1777770706 | 21.67° C | 95% | 1009.9 hPa | 0 mm | - | 0 W/m² | - |
| 1777770402 | 21.67° C | 95% | 1009.9 hPa | 0 mm | - | 0 W/m² | - |
| 1777770099 | 22.78° C | 95% | 1009.9 hPa | 0 mm | - | 0 W/m² | - |
| 1777769796 | 22.78° C | 95% | 1010 hPa | 0 mm | - | 0 W/m² | - |
| 1777769494 | 22.22° C | 95% | 1009.9 hPa | 0 mm | - | 0 W/m² | - |
| 1777769190 | 22.22° C | 95% | 1009.9 hPa | 0 mm | - | 0 W/m² | - |
| 1777768889 | 22.22° C | 95% | 1009.6 hPa | 0 mm | - | 0 W/m² | - |
| 1777768585 | 22.22° C | 95% | 1009.6 hPa | 0 mm | - | 0 W/m² | - |
| 1777768282 | 22.22° C | 95% | 1009.6 hPa | 0 mm | - | 0 W/m² | - |
| 1777767979 | 22.22° C | 95% | 1009.6 hPa | 0 mm | - | 0 W/m² | - |
| 1777767675 | 22.22° C | 95% | 1009.6 hPa | 0 mm | - | 0 W/m² | - |
| 1777767371 | 22.22° C | 95% | 1009.5 hPa | 0 mm | - | 0 W/m² | - |
| 1777767069 | 22.22° C | 94% | 1009.3 hPa | 0 mm | - | 0 W/m² | - |
| 1777766766 | 22.22° C | 94% | 1009 hPa | 1.78 mm | - | 2 W/m² | - |
| 1777766463 | 22.78° C | 94% | 1009.3 hPa | 1.78 mm | - | 3 W/m² | - |
| 1777766160 | 22.22° C | 94% | 1009 hPa | 1.27 mm | - | 2 W/m² | - |
| 1777765858 | 22.78° C | 93% | 1009 hPa | 3.05 mm | - | 1 W/m² | - |
| 1777765553 | 22.78° C | 92% | 1008.8 hPa | 4.32 mm | - | 2 W/m² | - |
| 1777765252 | 22.78° C | 92% | 1008.7 hPa | 1.27 mm | - | 3 W/m² | - |
| 1777764951 | 22.78° C | 91% | 1009 hPa | 0 mm | - | 5 W/m² | - |
| 1777764649 | 22.78° C | 91% | 1009.2 hPa | 0 mm | - | 5 W/m² | - |
| 1777764345 | 22.78° C | 91% | 1009.1 hPa | 0 mm | - | 6 W/m² | - |
| 1777764042 | 22.78° C | 91% | 1009.1 hPa | 0 mm | - | 12 W/m² | - |
| 1777763739 | 22.78° C | 91% | 1008.9 hPa | 0 mm | - | 15 W/m² | - |
| 1777763437 | 22.78° C | 91% | 1008.9 hPa | 0 mm | - | 12 W/m² | - |
* Rain latest hour (hover to see other rain measurements)
** Current wind speed in m/s (hover to see current wind gust speed)